• In Deutschland
  • Länderverzeichnis
  • Für 7 Tage
  • Wassertemperatur
  • Satellitenkarten
  • Wetterkarte
  • Widgets
  • user-avatar
    Anmelden

    Stündliche Wetter Bad Berneck im Fichtelgebirge

    Heute, 23 Juni, Samstag

    Zeit Temperatur Niederschläge Wind Luftdruck Luftfeuchtigkeit
    00:00 +7°C° 0 mm 2 m/S 723 mmHg 96%
    01:00 +7°C° 0 mm 1 m/S 723 mmHg 97%
    02:00 +6°C° 0 mm 2 m/S 723 mmHg 97%
    03:00 +6°C° 0 mm 2 m/S 723 mmHg 97%
    04:00 +6°C° 0 mm 2 m/S 723 mmHg 97%
    05:00 +6°C° 0 mm 2 m/S 723 mmHg 95%
    06:00 +7°C° 0 mm 3 m/S 723 mmHg 92%
    07:00 +8°C° 0 mm 3 m/S 724 mmHg 90%
    08:00 +9°C° 0,1 mm 3 m/S 724 mmHg 87%
    09:00 +9°C° 0,1 mm 3 m/S 724 mmHg 84%
    10:00 +9°C° 0,1 mm 3 m/S 724 mmHg 81%
    11:00 +10°C° 0,1 mm 3 m/S 724 mmHg 78%
    12:00 +11°C° 0,1 mm 4 m/S 723 mmHg 75%
    13:00 +12°C° 0,1 mm 4 m/S 723 mmHg 73%
    14:00 +12°C° 0,1 mm 4 m/S 723 mmHg 73%
    15:00 +12°C° 0,1 mm 4 m/S 723 mmHg 74%
    16:00 +12°C° 0,1 mm 4 m/S 723 mmHg 75%
    17:00 +11°C° 0,1 mm 3 m/S 723 mmHg 78%
    18:00 +11°C° 0,1 mm 3 m/S 723 mmHg 80%
    19:00 +11°C° 0,1 mm 3 m/S 723 mmHg 82%
    20:00 +10°C° 0 mm 2 m/S 723 mmHg 85%
    21:00 +10°C° 0 mm 2 m/S 723 mmHg 89%
    22:00 +9°C° 0 mm 2 m/S 723 mmHg 92%
    23:00 +9°C° 0 mm 2 m/S 723 mmHg 93%

    Morgen, 24 Juni, Sonntag

    Zeit Temperatur Niederschläge Wind Luftdruck Luftfeuchtigkeit
    00:00 +9°C° 0 mm 1 m/S 723 mmHg 94%
    01:00 +9°C° 0 mm 1 m/S 723 mmHg 95%
    02:00 +9°C° 0 mm 1 m/S 722 mmHg 95%
    03:00 +8°C° 0 mm 1 m/S 722 mmHg 95%
    04:00 +8°C° 0 mm 1 m/S 722 mmHg 96%
    05:00 +9°C° 0 mm 1 m/S 722 mmHg 93%
    06:00 +9°C° 0 mm 2 m/S 722 mmHg 90%
    07:00 +10°C° 0 mm 2 m/S 722 mmHg 87%
    08:00 +12°C° 0 mm 2 m/S 722 mmHg 79%
    09:00 +13°C° 0 mm 2 m/S 722 mmHg 72%
    10:00 +14°C° 0 mm 3 m/S 723 mmHg 65%
    11:00 +14°C° 0,1 mm 3 m/S 723 mmHg 64%
    12:00 +16°C° 0,1 mm 3 m/S 723 mmHg 64%
    13:00 +16°C° 0,1 mm 3 m/S 722 mmHg 63%
    14:00 +16°C° 0,1 mm 3 m/S 722 mmHg 62%
    15:00 +17°C° 0,1 mm 3 m/S 722 mmHg 61%
    16:00 +17°C° 0,1 mm 3 m/S 722 mmHg 60%
    17:00 +16°C° 0 mm 3 m/S 722 mmHg 65%
    18:00 +16°C° 0 mm 2 m/S 721 mmHg 69%
    19:00 +15°C° 0 mm 2 m/S 721 mmHg 74%
    20:00 +14°C° 0,1 mm 2 m/S 721 mmHg 79%
    21:00 +13°C° 0,1 mm 1 m/S 721 mmHg 84%
    22:00 +11°C° 0,1 mm 1 m/S 722 mmHg 89%
    23:00 +11°C° 0 mm 1 m/S 721 mmHg 91%

    übermorgen, 25 Juni, Montag

    Zeit Temperatur Niederschläge Wind Luftdruck Luftfeuchtigkeit
    00:00 +11°C° 0 mm 1 m/S 721 mmHg 93%
    01:00 +11°C° 0 mm 1 m/S 721 mmHg 94%
    02:00 +10°C° 0 mm 1 m/S 721 mmHg 95%
    03:00 +10°C° 0 mm 1 m/S 721 mmHg 96%
    04:00 +10°C° 0 mm 1 m/S 721 mmHg 97%
    05:00 +11°C° 0 mm 1 m/S 721 mmHg 94%
    06:00 +12°C° 0 mm 1 m/S 722 mmHg 92%
    07:00 +12°C° 0 mm 1 m/S 722 mmHg 90%
    08:00 +13°C° 0,1 mm 1 m/S 722 mmHg 87%
    09:00 +14°C° 0,1 mm 2 m/S 722 mmHg 84%
    10:00 +15°C° 0,1 mm 2 m/S 722 mmHg 82%
    11:00 +15°C° 0,1 mm 2 m/S 723 mmHg 80%
    12:00 +16°C° 0,1 mm 2 m/S 723 mmHg 78%
    13:00 +17°C° 0,1 mm 2 m/S 723 mmHg 76%
    14:00 +17°C° 0,1 mm 2 m/S 723 mmHg 72%
    15:00 +18°C° 0,1 mm 3 m/S 723 mmHg 68%
    16:00 +19°C° 0,1 mm 3 m/S 723 mmHg 64%
    17:00 +18°C° 0 mm 2 m/S 723 mmHg 67%
    18:00 +18°C° 0 mm 2 m/S 723 mmHg 71%
    19:00 +17°C° 0 mm 2 m/S 723 mmHg 75%
    20:00 +16°C° 0 mm 1 m/S 723 mmHg 81%
    21:00 +14°C° 0 mm 1 m/S 723 mmHg 87%
    22:00 +12°C° 0 mm 1 m/S 723 mmHg 93%
    23:00 +12°C° 0 mm 1 m/S 723 mmHg 93%

    26 Juni, Dienstag

    Zeit Temperatur Niederschläge Wind Luftdruck Luftfeuchtigkeit
    00:00 +10°C° 0 mm 0 m/S 723 mmHg 93%
    01:00 +10°C° 0 mm 0 m/S 723 mmHg 93%
    02:00 +10°C° 0 mm 0 m/S 723 mmHg 93%
    03:00 +10°C° 0 mm 0 m/S 723 mmHg 93%
    04:00 +11°C° 0 mm 0 m/S 723 mmHg 93%
    05:00 +12°C° 0 mm 0 m/S 723 mmHg 91%
    06:00 +12°C° 0 mm 0 m/S 723 mmHg 88%
    07:00 +14°C° 0 mm 1 m/S 724 mmHg 86%
    08:00 +16°C° 0 mm 1 m/S 724 mmHg 79%
    09:00 +19°C° 0 mm 1 m/S 724 mmHg 72%
    10:00 +21°C° 0 mm 1 m/S 725 mmHg 65%
    11:00 +20°C° 0,1 mm 2 m/S 724 mmHg 61%
    12:00 +21°C° 0,1 mm 2 m/S 724 mmHg 58%
    13:00 +23°C° 0,1 mm 2 m/S 724 mmHg 54%
    14:00 +23°C° 0,1 mm 2 m/S 724 mmHg 54%
    15:00 +23°C° 0,1 mm 2 m/S 724 mmHg 53%
    16:00 +24°C° 0,1 mm 3 m/S 724 mmHg 52%
    17:00 +23°C° 0 mm 2 m/S 724 mmHg 59%
    18:00 +21°C° 0 mm 2 m/S 724 mmHg 66%
    19:00 +20°C° 0 mm 2 m/S 724 mmHg 72%
    20:00 +18°C° 0 mm 2 m/S 724 mmHg 78%
    21:00 +16°C° 0 mm 2 m/S 724 mmHg 84%
    22:00 +15°C° 0 mm 2 m/S 724 mmHg 89%
    23:00 +14°C° 0 mm 2 m/S 724 mmHg 90%

    27 Juni, Mittwoch

    Zeit Temperatur Niederschläge Wind Luftdruck Luftfeuchtigkeit
    00:00 +13°C° 0 mm 2 m/S 724 mmHg 90%
    01:00 +13°C° 0 mm 1 m/S 724 mmHg 91%
    02:00 +13°C° 0 mm 1 m/S 724 mmHg 91%
    03:00 +12°C° 0 mm 1 m/S 724 mmHg 91%
    04:00 +12°C° 0 mm 1 m/S 724 mmHg 92%
    05:00 +14°C° 0 mm 1 m/S 724 mmHg 85%
    06:00 +16°C° 0 mm 1 m/S 724 mmHg 78%
    07:00 +17°C° 0 mm 2 m/S 725 mmHg 72%
    08:00 +19°C° 0 mm 2 m/S 725 mmHg 65%
    09:00 +21°C° 0 mm 3 m/S 725 mmHg 58%
    10:00 +24°C° 0 mm 3 m/S 725 mmHg 51%
    11:00 +24°C° 0 mm 3 m/S 725 mmHg 50%
    12:00 +25°C° 0 mm 3 m/S 725 mmHg 49%
    13:00 +25°C° 0 mm 3 m/S 724 mmHg 48%
    14:00 +25°C° 0 mm 4 m/S 724 mmHg 49%
    15:00 +25°C° 0 mm 4 m/S 724 mmHg 50%
    16:00 +25°C° 0 mm 4 m/S 723 mmHg 50%
    17:00 +24°C° 0 mm 3 m/S 723 mmHg 55%
    18:00 +22°C° 0 mm 3 m/S 723 mmHg 60%
    19:00 +21°C° 0 mm 2 m/S 723 mmHg 64%
    20:00 +19°C° 0 mm 2 m/S 723 mmHg 68%
    21:00 +17°C° 0 mm 2 m/S 723 mmHg 73%
    22:00 +15°C° 0 mm 2 m/S 723 mmHg 77%
    23:00 +14°C° 0 mm 2 m/S 722 mmHg 78%

    28 Juni, Donnerstag

    Zeit Temperatur Niederschläge Wind Luftdruck Luftfeuchtigkeit
    00:00 +14°C° 0 mm 2 m/S 722 mmHg 78%
    01:00 +13°C° 0 mm 2 m/S 722 mmHg 79%
    02:00 +13°C° 0 mm 2 m/S 722 mmHg 81%
    03:00 +12°C° 0 mm 2 m/S 722 mmHg 83%
    04:00 +12°C° 0 mm 2 m/S 722 mmHg 84%
    05:00 +14°C° 0 mm 2 m/S 722 mmHg 80%
    06:00 +15°C° 0 mm 2 m/S 722 mmHg 75%
    07:00 +17°C° 0 mm 3 m/S 723 mmHg 70%
    08:00 +19°C° 0 mm 3 m/S 723 mmHg 65%
    09:00 +20°C° 0 mm 4 m/S 723 mmHg 60%
    10:00 +21°C° 0 mm 4 m/S 723 mmHg 54%
    11:00 +22°C° 0 mm 5 m/S 722 mmHg 52%
    12:00 +23°C° 0 mm 5 m/S 722 mmHg 51%
    13:00 +23°C° 0 mm 5 m/S 722 mmHg 49%
    14:00 +23°C° 0,1 mm 5 m/S 722 mmHg 52%
    15:00 +22°C° 0,1 mm 5 m/S 721 mmHg 55%
    16:00 +22°C° 0,1 mm 5 m/S 721 mmHg 59%
    17:00 +21°C° 0,1 mm 4 m/S 721 mmHg 63%
    18:00 +20°C° 0,1 mm 3 m/S 721 mmHg 67%
    19:00 +19°C° 0,1 mm 2 m/S 721 mmHg 72%
    20:00 +18°C° 0 mm 2 m/S 720 mmHg 76%
    21:00 +17°C° 0 mm 2 m/S 720 mmHg 81%
    22:00 +15°C° 0 mm 1 m/S 720 mmHg 85%
    23:00 +15°C° 0 mm 2 m/S 720 mmHg 87%
    Mehr zeigen